This demonstration page uses our WeatherBlox Daily Observations layout. Learn more.

Left ArrowRight Arrow

Hourly Observations for May 18, 2021

Temp ( °F °C ) Dew Point ( °F °C ) Humidity (%) Winds ( mph kmh ) Pressure ( in mb ) Visibility ( mi km ) Precip ( " mm )
12:15 am 00:15 Clear 54 12 50 10 88 88 Calm 30.34 1028 10 16 0.00 0.00
12:35 am 00:35 Clear 54 12 50 10 88 88 Calm 30.35 1028 10 16 0.00 0.00
12:55 am 00:55 Clear 54 12 50 10 88 88 Calm 30.35 1028 10 16 0.00 0.00
1:15 am 01:15 Clear 54 12 50 10 88 88 Calm 30.35 1028 10 16 0.00 0.00
1:35 am 01:35 Clear 52 11 50 10 94 94 Calm 30.34 1028 10 16 0.00 0.00
1:55 am 01:55 Clear 52 11 50 10 94 94 Calm 30.34 1028 10 16 0.00 0.00
2:15 am 02:15 Clear 52 11 50 10 94 94 Calm 30.34 1028 10 16 0.00 0.00
2:35 am 02:35 Clear 50 10 48 9 94 94 Calm 30.35 1028 10 16 0.00 0.00
2:55 am 02:55 Clear 50 10 48 9 94 94 Calm 30.35 1028 10 16 0.00 0.00
3:15 am 03:15 Clear 50 10 46 8 88 88 Calm 30.35 1028 10 16 0.00 0.00
3:35 am 03:35 Clear 48 9 46 8 94 94 Calm 30.36 1028 10 16 0.00 0.00
3:55 am 03:55 Clear 48 9 46 8 94 94 Calm 30.36 1028 10 16 0.00 0.00
4:15 am 04:15 Clear 46 8 46 8 100 100 Calm 30.36 1028 10 16 0.00 0.00
4:35 am 04:35 Clear 48 9 46 8 94 94 Calm 30.36 1028 10 16 0.00 0.00
4:55 am 04:55 Clear 46 8 45 7 93 93 Calm 30.36 1028 10 16 0.00 0.00
5:15 am 05:15 Clear 46 8 45 7 93 93 Calm 30.36 1028 10 16 0.00 0.00
5:35 am 05:35 Clear 45 7 45 7 100 100 Calm 30.36 1028 10 16 0.00 0.00
5:55 am 05:55 Sunny 46 8 45 7 93 93 Calm 30.37 1028 10 16 0.00 0.00
6:15 am 06:15 Sunny 45 7 45 7 100 100 Calm 30.37 1028 10 16 0.00 0.00
6:35 am 06:35 Sunny 45 7 45 7 100 100 Calm 30.38 1029 10 16 0.00 0.00
6:55 am 06:55 Sunny with Mist and Fog 46 8 45 7 93 93 Calm 30.38 1029 5 8 0.00 0.00
7:15 am 07:15 Sunny 48 9 46 8 94 94 Calm 30.39 1029 10 16 0.00 0.00
7:35 am 07:35 Sunny 52 11 48 9 88 88 Calm 30.39 1029 10 16 0.00 0.00
7:55 am 07:55 Sunny 54 12 48 9 82 82 Calm 30.39 1029 10 16 0.00 0.00
8:15 am 08:15 Sunny 55 13 50 10 82 82 Calm 30.39 1029 10 16 0.00 0.00
8:35 am 08:35 Sunny 59 15 50 10 72 72 Calm 30.40 1029 10 16 0.00 0.00
8:55 am 08:55 Sunny 61 16 50 10 68 68 Calm 30.40 1029 10 16 0.00 0.00
9:15 am 09:15 Sunny 63 17 50 10 64 64 Calm 30.41 1030 10 16 0.00 0.00
9:35 am 09:35 Sunny 64 18 50 10 60 60 W 3 6 30.40 1030 10 16 0.00 0.00
9:55 am 09:55 Sunny 68 20 50 10 53 53 SW 5 7 30.40 1030 10 16 0.00 0.00
10:15 am 10:15 Sunny 68 20 48 9 49 49 Calm 30.40 1030 10 16 0.00 0.00
10:35 am 10:35 Sunny 70 21 50 10 50 50 SSW 6 9 30.40 1029 10 16 0.00 0.00
10:55 am 10:55 Sunny 70 21 50 10 50 50 WSW 3 6 30.40 1029 10 16 0.00 0.00
11:15 am 11:15 Sunny 70 21 50 10 50 50 SSW 3 6 30.40 1029 10 16 0.00 0.00
11:35 am 11:35 Sunny 72 22 48 9 44 44 S 3 6 30.40 1029 10 16 0.00 0.00
11:55 am 11:55 Mostly Cloudy 73 23 48 9 41 41 Calm 30.39 1029 10 16 0.00 0.00
12:15 pm 12:15 Partly Cloudy 72 22 46 8 41 41 SE 3 6 30.38 1029 10 16 0.00 0.00
12:35 pm 12:35 Partly Cloudy 72 22 46 8 41 41 SSW 7 11 30.38 1029 10 16 0.00 0.00
12:55 pm 12:55 Partly Cloudy 73 23 46 8 38 38 E 3 6 30.38 1029 10 16 0.00 0.00
1:15 pm 13:15 Partly Cloudy 75 24 48 9 39 39 W 5 7 30.37 1028 10 16 0.00 0.00
1:35 pm 13:35 Partly Cloudy 77 25 48 9 36 36 Calm 30.36 1028 10 16 0.00 0.00
1:55 pm 13:55 Partly Cloudy 77 25 48 9 36 36 WNW 6 9 30.35 1028 10 16 0.00 0.00
2:15 pm 14:15 Mostly Cloudy 77 25 48 9 36 36 SSW 6 9 30.34 1028 10 16 0.00 0.00
2:35 pm 14:35 Partly Cloudy 77 25 46 8 34 34 Calm 30.34 1028 10 16 0.00 0.00
2:55 pm 14:55 Sunny 75 24 48 9 39 39 Calm 30.34 1027 10 16 0.00 0.00
3:15 pm 15:15 Partly Cloudy 79 26 48 9 34 34 Calm 30.32 1027 10 16 0.00 0.00
3:35 pm 15:35 Partly Cloudy 77 25 50 10 39 39 SW 7 11 30.32 1027 10 16 0.00 0.00
3:55 pm 15:55 Sunny 77 25 48 9 36 36 S 6 9 30.31 1027 10 16 0.00 0.00
4:15 pm 16:15 Sunny 77 25 50 10 39 39 WSW 6 9 30.30 1026 10 16 0.00 0.00
4:35 pm 16:35 Partly Cloudy 79 26 50 10 37 37 W 3 6 30.29 1026 10 16 0.00 0.00
4:55 pm 16:55 Sunny 79 26 50 10 37 37 SW 7 11 30.29 1026 10 16 0.00 0.00
5:15 pm 17:15 Sunny 77 25 46 8 34 34 Calm 30.29 1026 10 16 0.00 0.00
5:35 pm 17:35 Sunny 77 25 48 9 36 36 SSE 5 7 30.29 1026 10 16 0.00 0.00
5:55 pm 17:55 Sunny 79 26 46 8 32 32 W 3 6 30.28 1025 10 16 0.00 0.00
6:15 pm 18:15 Sunny 77 25 48 9 36 36 SW 9 15 30.28 1026 10 16 0.00 0.00
6:35 pm 18:35 Sunny 77 25 46 8 34 34 W 3 6 30.28 1026 10 16 0.00 0.00
6:55 pm 18:55 Sunny 77 25 48 9 36 36 SW 3 6 30.28 1026 10 16 0.00 0.00
7:15 pm 19:15 Sunny 77 25 48 9 36 36 Calm 30.28 1026 10 16 0.00 0.00
7:35 pm 19:35 Sunny 77 25 48 9 36 36 SW 3 6 30.28 1026 10 16 0.00 0.00
7:55 pm 19:55 Sunny 75 24 50 10 41 41 Calm 30.30 1026 10 16 0.00 0.00
8:15 pm 20:15 Sunny 73 23 50 10 44 44 Calm 30.30 1026 10 16 0.00 0.00
8:35 pm 20:35 Clear 70 21 50 10 50 50 Calm 30.30 1026 10 16 0.00 0.00
8:55 pm 20:55 Clear 70 21 52 11 53 53 Calm 30.30 1026 10 16 0.00 0.00
9:15 pm 21:15 Clear 66 19 52 11 60 60 SSW 6 9 30.30 1026 10 16 0.00 0.00
9:35 pm 21:35 Clear 66 19 52 11 60 60 SSW 6 9 30.31 1027 10 16 0.00 0.00
9:55 pm 21:55 Clear 64 18 52 11 64 64 SSW 6 9 30.32 1027 10 16 0.00 0.00
10:15 pm 22:15 Clear 64 18 52 11 64 64 SSW 7 11 30.32 1027 10 16 0.00 0.00
10:35 pm 22:35 Clear 64 18 52 11 64 64 SW 8 13 30.32 1027 10 16 0.00 0.00
10:55 pm 22:55 Clear 64 18 52 11 64 64 SW 6 9 30.32 1027 10 16 0.00 0.00
11:15 pm 23:15 Clear 63 17 50 10 64 64 SSW 6 9 30.33 1027 10 16 0.00 0.00
11:35 pm 23:35 Clear 63 17 50 10 64 64 SSW 6 9 30.33 1027 10 16 0.00 0.00
11:55 pm 23:55 Clear 63 17 50 10 64 64 SSW 6 9 30.33 1027 10 16 0.00 0.00

Powered by AerisWeather